TimeCST,TemperatureF,Dew PointF,Humidity,Sea Level PressureIn,VisibilityMPH,Wind Direction,Wind SpeedMPH,Gust SpeedMPH,PrecipitationIn,Events,Conditions,WindDirDegrees,DateUTC
12:15 AM,1.4,-5.8,72,30.14,3.0,NNW,19.6,34.5,0.00,,Overcast,340,2013-02-19 06:15:00
12:35 AM,1.4,-5.8,72,30.14,5.0,NNW,26.5,-,0.00,,Overcast,340,2013-02-19 06:35:00
12:55 AM,-0.4,-7.6,72,30.15,7.0,NNW,23.0,28.8,0.00,,Overcast,340,2013-02-19 06:55:00
1:15 AM,-0.4,-7.6,72,30.17,10.0,NNW,19.6,28.8,0.00,,Overcast,330,2013-02-19 07:15:00
1:35 AM,-0.4,-9.4,66,30.17,10.0,NNW,19.6,-,0.00,,Overcast,330,2013-02-19 07:35:00
1:55 AM,-4.0,-9999,N/A,30.18,10.0,NNW,21.9,26.5,0.00,,Unknown,340,2013-02-19 07:55:00
2:15 AM,-4.0,-11.2,71,30.18,10.0,NNW,19.6,26.5,0.00,,Overcast,340,2013-02-19 08:15:00
2:35 AM,-4.0,-13.0,65,30.19,10.0,NNW,19.6,24.2,0.00,,Overcast,340,2013-02-19 08:35:00
2:55 AM,-5.8,-13.0,71,30.19,10.0,NNW,17.3,-,0.00,,Overcast,330,2013-02-19 08:55:00
3:15 AM,-5.8,-13.0,71,30.21,10.0,NNW,17.3,-,0.00,,Overcast,330,2013-02-19 09:15:00
3:35 AM,-5.8,-14.8,65,30.21,10.0,NNW,19.6,-,0.00,,Overcast,330,2013-02-19 09:35:00
3:55 AM,-5.8,-14.8,65,30.21,10.0,NNW,19.6,-,0.00,,Overcast,330,2013-02-19 09:55:00
4:15 AM,-7.6,-14.8,71,30.22,10.0,NW,19.6,-,0.00,,Overcast,320,2013-02-19 10:15:00
4:35 AM,-7.6,-14.8,71,30.22,10.0,NNW,16.1,-,0.00,,Overcast,330,2013-02-19 10:35:00
4:55 AM,-7.6,-16.6,65,30.23,10.0,NW,17.3,-,0.00,,Overcast,320,2013-02-19 10:55:00
5:15 AM,-7.6,-16.6,65,30.24,10.0,NW,16.1,-,0.00,,Unknown,320,2013-02-19 11:15:00
5:35 AM,-9.4,-16.6,71,30.24,10.0,NNW,16.1,-,0.00,,Unknown,330,2013-02-19 11:35:00
5:55 AM,-9.4,-18.4,65,30.26,10.0,NNW,17.3,-,0.00,,Overcast,330,2013-02-19 11:55:00
6:15 AM,-9.4,-18.4,65,30.27,10.0,NW,16.1,-,0.00,,Unknown,320,2013-02-19 12:15:00
6:35 AM,-9.4,-18.4,65,30.28,10.0,NW,16.1,-,0.00,,Unknown,320,2013-02-19 12:35:00
6:55 AM,-9.4,-18.4,65,30.28,10.0,NW,16.1,-,0.00,,Overcast,320,2013-02-19 12:55:00
7:15 AM,-9.4,-18.4,65,30.29,10.0,NW,13.8,-,0.00,,Unknown,320,2013-02-19 13:15:00
7:35 AM,-9.4,-18.4,65,30.30,10.0,NW,13.8,-,0.00,,Unknown,320,2013-02-19 13:35:00
7:55 AM,-9.4,-18.4,65,30.30,10.0,NW,13.8,-,0.00,,Scattered Clouds,320,2013-02-19 13:55:00
8:15 AM,-9.4,-18.4,65,30.31,10.0,NW,15.0,-,0.00,,Unknown,310,2013-02-19 14:15:00
8:35 AM,-9.4,-18.4,65,30.31,10.0,NW,15.0,-,0.00,,Unknown,320,2013-02-19 14:35:00
8:55 AM,-9.4,-18.4,65,30.32,10.0,NW,13.8,-,0.00,,Partly Cloudy,320,2013-02-19 14:55:00
9:15 AM,-9.4,-18.4,65,30.33,10.0,NW,16.1,-,0.00,,Unknown,310,2013-02-19 15:15:00
9:35 AM,-9.4,-18.4,65,30.34,10.0,NW,16.1,-,0.00,,Scattered Clouds,320,2013-02-19 15:35:00
9:55 AM,-7.6,-16.6,65,30.34,10.0,NW,16.1,-,0.00,,Clear,320,2013-02-19 15:55:00
10:15 AM,-7.6,-16.6,65,30.34,10.0,NNW,13.8,-,0.00,,Clear,340,2013-02-19 16:15:00
10:35 AM,-5.8,-14.8,65,30.34,10.0,NNW,17.3,21.9,0.00,,Clear,340,2013-02-19 16:35:00
10:55 AM,-5.8,-14.8,65,30.35,10.0,NNW,16.1,-,0.00,,Unknown,340,2013-02-19 16:55:00
11:15 AM,-4.0,-13.0,65,30.35,10.0,NNW,17.3,-,0.00,,Unknown,340,2013-02-19 17:15:00
11:35 AM,-2.2,-13.0,60,30.36,10.0,NNW,19.6,-,0.00,,Clear,340,2013-02-19 17:35:00
12:15 PM,-0.4,-11.2,60,30.36,10.0,North,19.6,24.2,0.00,,Clear,360,2013-02-19 18:15:00
12:35 PM,-0.4,-9999,N/A,30.37,10.0,NNW,17.3,-,0.00,,Clear,340,2013-02-19 18:35:00
12:55 PM,-0.4,-9999,N/A,30.36,10.0,North,18.4,-,0.00,,Unknown,350,2013-02-19 18:55:00
1:15 PM,-0.4,-9.4,66,30.35,10.0,North,17.3,-,0.00,,Clear,350,2013-02-19 19:15:00
1:35 PM,-0.4,-9.4,66,30.35,10.0,North,16.1,-,0.00,,Clear,350,2013-02-19 19:35:00
1:55 PM,1.4,-9.4,61,30.36,10.0,North,15.0,-,0.00,,Unknown,350,2013-02-19 19:55:00
2:15 PM,1.4,-7.6,66,30.36,10.0,NNW,18.4,-,0.00,,Clear,340,2013-02-19 20:15:00
2:35 PM,1.4,-7.6,66,30.36,10.0,NNW,13.8,-,0.00,,Unknown,340,2013-02-19 20:35:00
2:55 PM,1.4,-7.6,66,30.37,10.0,NNW,12.7,-,0.00,,Unknown,340,2013-02-19 20:55:00
3:15 PM,1.4,-7.6,66,30.38,10.0,NNW,15.0,-,0.00,,Clear,340,2013-02-19 21:15:00
3:35 PM,3.2,-7.6,61,30.38,10.0,NNW,13.8,-,0.00,,Unknown,330,2013-02-19 21:35:00
3:55 PM,3.2,-7.6,61,30.38,10.0,North,12.7,-,0.00,,Unknown,350,2013-02-19 21:55:00
4:15 PM,3.2,-7.6,61,30.38,10.0,North,9.2,-,0.00,,Clear,350,2013-02-19 22:15:00
4:35 PM,3.2,-5.8,66,30.39,10.0,NNW,11.5,-,0.00,,Unknown,340,2013-02-19 22:35:00
4:55 PM,1.4,-7.6,66,30.38,10.0,North,11.5,-,0.00,,Unknown,360,2013-02-19 22:55:00
5:15 PM,1.4,-7.6,66,30.38,10.0,NNW,9.2,-,0.00,,Clear,340,2013-02-19 23:15:00
5:35 PM,1.4,-7.6,66,30.37,10.0,North,9.2,-,0.00,,Unknown,350,2013-02-19 23:35:00
6:35 PM,-4.0,-11.2,71,30.39,10.0,NNW,8.1,-,0.00,,Unknown,330,2013-02-20 00:35:00
6:55 PM,-5.8,-13.0,71,30.39,10.0,North,6.9,-,0.00,,Clear,350,2013-02-20 00:55:00
7:15 PM,-7.6,-14.8,71,30.39,10.0,North,8.1,-,0.00,,Clear,10,2013-02-20 01:15:00
7:55 PM,-7.6,-14.8,71,30.41,10.0,NNW,5.8,-,0.00,,Clear,340,2013-02-20 01:55:00
8:15 PM,-7.6,-13.0,77,30.42,10.0,NNW,6.9,-,0.00,,Mostly Cloudy,330,2013-02-20 02:15:00
8:35 PM,-9.4,-16.6,71,30.41,10.0,NNE,8.1,-,0.00,,Overcast,30,2013-02-20 02:35:00
9:15 PM,-13.0,-18.4,77,30.43,10.0,NNE,5.8,-,0.00,,Overcast,30,2013-02-20 03:15:00
9:35 PM,-11.2,-16.6,77,30.42,10.0,North,6.9,-,0.00,,Scattered Clouds,10,2013-02-20 03:35:00
9:55 PM,-11.2,-16.6,77,30.43,10.0,North,6.9,-,0.00,,Clear,10,2013-02-20 03:55:00
10:15 PM,-9999,-9999,N/A,30.42,10.0,North,8.1,-,0.00,,Clear,10,2013-02-20 04:15:00
10:35 PM,-13.0,-18.4,77,30.44,10.0,North,6.9,-,0.00,,Clear,350,2013-02-20 04:35:00
10:55 PM,-9.4,-16.6,71,30.45,10.0,North,6.9,-,0.00,,Clear,10,2013-02-20 04:55:00
11:15 PM,-9999,-9999,N/A,30.45,10.0,North,8.1,-,0.00,,Partly Cloudy,10,2013-02-20 05:15:00
11:35 PM,-13.0,-18.4,77,30.45,10.0,North,8.1,-,0.00,,Unknown,10,2013-02-20 05:35:00
11:55 PM,-13.0,-18.4,77,30.45,10.0,North,5.8,-,0.00,,Partly Cloudy,360,2013-02-20 05:55:00